Year,Month,Day,Hour,Minute,Value (Times are PST for temperature in C)
2016,03,30,00,00,7.70
2016,03,30,00,01,7.70
2016,03,30,00,02,7.70
2016,03,30,00,03,7.70
2016,03,30,00,04,7.70
2016,03,30,00,05,7.70
2016,03,30,00,06,7.70
2016,03,30,00,07,7.70
2016,03,30,00,08,7.70
2016,03,30,00,09,7.70
2016,03,30,00,10,7.60
2016,03,30,00,11,7.60
2016,03,30,00,12,7.60
2016,03,30,00,13,7.60
2016,03,30,00,14,7.60
2016,03,30,00,15,7.60
2016,03,30,00,16,7.50
2016,03,30,00,17,7.50
2016,03,30,00,18,7.50
2016,03,30,00,19,7.50
2016,03,30,00,20,7.50
2016,03,30,00,21,7.40
2016,03,30,00,22,7.40
2016,03,30,00,23,7.40
2016,03,30,00,24,7.40
2016,03,30,00,25,7.40
2016,03,30,00,26,7.40
2016,03,30,00,27,7.40
2016,03,30,00,28,7.40
2016,03,30,00,29,7.40
2016,03,30,00,30,7.40
2016,03,30,00,31,7.40
2016,03,30,00,32,7.40
2016,03,30,00,33,7.40
2016,03,30,00,34,7.40
2016,03,30,00,35,7.30
2016,03,30,00,36,7.30
2016,03,30,00,37,7.30
2016,03,30,00,38,7.20
2016,03,30,00,39,7.20
2016,03,30,00,40,7.20
2016,03,30,00,41,7.10
2016,03,30,00,42,7.10
2016,03,30,00,43,7.00
2016,03,30,00,44,7.00
2016,03,30,00,45,6.90
2016,03,30,00,46,6.90
2016,03,30,00,47,6.80
2016,03,30,00,48,6.80
2016,03,30,00,49,6.80
2016,03,30,00,50,6.80
2016,03,30,00,51,6.80
2016,03,30,00,52,6.70
2016,03,30,00,53,6.70
2016,03,30,00,54,6.80
2016,03,30,00,55,6.80
2016,03,30,00,56,6.80
2016,03,30,00,57,6.80
2016,03,30,00,58,6.80
2016,03,30,00,59,6.80
2016,03,30,01,00,6.80
2016,03,30,01,01,6.70
2016,03,30,01,02,6.80
2016,03,30,01,03,6.80
2016,03,30,01,04,6.80
2016,03,30,01,05,6.80
2016,03,30,01,06,6.80
2016,03,30,01,07,6.80
2016,03,30,01,08,6.80
2016,03,30,01,09,6.80
2016,03,30,01,10,6.80
2016,03,30,01,11,6.70
2016,03,30,01,12,6.70
2016,03,30,01,13,6.70
2016,03,30,01,14,6.70
2016,03,30,01,15,6.70
2016,03,30,01,16,6.70
2016,03,30,01,17,6.70
2016,03,30,01,18,6.70
2016,03,30,01,19,6.70
2016,03,30,01,20,6.70
2016,03,30,01,21,6.70
2016,03,30,01,22,6.70
2016,03,30,01,23,6.70
2016,03,30,01,24,6.70
2016,03,30,01,25,6.70
2016,03,30,01,26,6.80
2016,03,30,01,27,6.80
2016,03,30,01,28,6.80
2016,03,30,01,29,6.80
2016,03,30,01,30,6.70
2016,03,30,01,31,6.70
2016,03,30,01,32,6.70
2016,03,30,01,33,6.70
2016,03,30,01,34,6.70
2016,03,30,01,35,6.70
2016,03,30,01,36,6.60
2016,03,30,01,37,6.60
2016,03,30,01,38,6.60
2016,03,30,01,39,6.60
2016,03,30,01,40,6.60
2016,03,30,01,41,6.60
2016,03,30,01,42,6.50
2016,03,30,01,43,6.50
2016,03,30,01,44,6.50
2016,03,30,01,45,6.50
2016,03,30,01,46,6.50
2016,03,30,01,47,6.40
2016,03,30,01,48,6.40
2016,03,30,01,49,6.40
2016,03,30,01,50,6.40
2016,03,30,01,51,6.40
2016,03,30,01,52,6.40
2016,03,30,01,53,6.40
2016,03,30,01,54,6.40
2016,03,30,01,55,6.40
2016,03,30,01,56,6.30
2016,03,30,01,57,6.30
2016,03,30,01,58,6.30
2016,03,30,01,59,6.30
2016,03,30,02,00,6.30
2016,03,30,02,01,6.30
2016,03,30,02,02,6.30
2016,03,30,02,03,6.30
2016,03,30,02,04,6.30
2016,03,30,02,05,6.30
2016,03,30,02,06,6.30
2016,03,30,02,07,6.30
2016,03,30,02,08,6.20
2016,03,30,02,09,6.20
2016,03,30,02,10,6.20
2016,03,30,02,11,6.20
2016,03,30,02,12,6.10
2016,03,30,02,13,6.10
2016,03,30,02,14,6.10
2016,03,30,02,15,6.10
2016,03,30,02,16,6.00
2016,03,30,02,17,6.00
2016,03,30,02,18,6.00
2016,03,30,02,19,5.90
2016,03,30,02,20,5.90
2016,03,30,02,21,5.90
2016,03,30,02,22,5.80
2016,03,30,02,23,5.80
2016,03,30,02,24,5.80
2016,03,30,02,25,5.70
2016,03,30,02,26,5.70
2016,03,30,02,27,5.70
2016,03,30,02,28,5.70
2016,03,30,02,29,5.70
2016,03,30,02,30,5.70
2016,03,30,02,31,5.70
2016,03,30,02,32,5.70
2016,03,30,02,33,5.70
2016,03,30,02,34,5.70
2016,03,30,02,35,5.70
2016,03,30,02,36,5.70
2016,03,30,02,37,5.70
2016,03,30,02,38,5.60
2016,03,30,02,39,5.60
2016,03,30,02,40,5.60
2016,03,30,02,41,5.60
2016,03,30,02,42,5.50
2016,03,30,02,43,5.50
2016,03,30,02,44,5.50
2016,03,30,02,45,5.40
2016,03,30,02,46,5.40
2016,03,30,02,47,5.40
2016,03,30,02,48,5.40
2016,03,30,02,49,5.50
2016,03,30,02,50,5.50
2016,03,30,02,51,5.50
2016,03,30,02,52,5.50
2016,03,30,02,53,5.50
2016,03,30,02,54,5.60
2016,03,30,02,55,5.60
2016,03,30,02,56,5.60
2016,03,30,02,57,5.60
2016,03,30,02,58,5.60
2016,03,30,02,59,5.60
2016,03,30,03,00,5.60
2016,03,30,03,01,5.60
2016,03,30,03,02,5.60
2016,03,30,03,03,5.60
2016,03,30,03,04,5.60
2016,03,30,03,05,5.60
2016,03,30,03,06,5.60
2016,03,30,03,07,5.60
2016,03,30,03,08,5.60
2016,03,30,03,09,5.60
2016,03,30,03,10,5.60
2016,03,30,03,11,5.60
2016,03,30,03,12,5.60
2016,03,30,03,13,5.60
2016,03,30,03,14,5.50
2016,03,30,03,15,5.50
2016,03,30,03,16,5.50
2016,03,30,03,17,5.50
2016,03,30,03,18,5.40
2016,03,30,03,19,5.40
2016,03,30,03,20,5.40
2016,03,30,03,21,5.40
2016,03,30,03,22,5.40
2016,03,30,03,23,5.30
2016,03,30,03,24,5.30
2016,03,30,03,25,5.30
2016,03,30,03,26,5.30
2016,03,30,03,27,5.20
2016,03,30,03,28,5.20
2016,03,30,03,29,5.20
2016,03,30,03,30,5.20
2016,03,30,03,31,5.20
2016,03,30,03,32,5.20
2016,03,30,03,33,5.10
2016,03,30,03,34,5.10
2016,03,30,03,35,5.10
2016,03,30,03,36,5.10
2016,03,30,03,37,5.10
2016,03,30,03,38,5.10
2016,03,30,03,39,5.10
2016,03,30,03,40,5.10
2016,03,30,03,41,5.10
2016,03,30,03,42,5.00
2016,03,30,03,43,5.00
2016,03,30,03,44,5.00
2016,03,30,03,45,4.90
2016,03,30,03,46,4.90
2016,03,30,03,47,4.90
2016,03,30,03,48,4.90
2016,03,30,03,49,4.90
2016,03,30,03,50,4.90
2016,03,30,03,51,4.80
2016,03,30,03,52,4.80
2016,03,30,03,53,4.80
2016,03,30,03,54,4.80
2016,03,30,03,55,4.70
2016,03,30,03,56,4.70
2016,03,30,03,57,4.70
2016,03,30,03,58,4.70
2016,03,30,03,59,4.70
2016,03,30,04,00,4.70
2016,03,30,04,01,4.70
2016,03,30,04,02,4.70
2016,03,30,04,03,4.70
2016,03,30,04,04,4.70
2016,03,30,04,05,4.70
2016,03,30,04,06,4.70
2016,03,30,04,07,4.70
2016,03,30,04,08,4.70
2016,03,30,04,09,4.70
2016,03,30,04,10,4.70
2016,03,30,04,11,4.70
2016,03,30,04,12,4.70
2016,03,30,04,13,4.70
2016,03,30,04,14,4.70
2016,03,30,04,15,4.70
2016,03,30,04,16,4.70
2016,03,30,04,17,4.70
2016,03,30,04,18,4.70
2016,03,30,04,19,4.70
2016,03,30,04,20,4.70
2016,03,30,04,21,4.70
2016,03,30,04,22,4.70
2016,03,30,04,23,4.70
2016,03,30,04,24,4.80
2016,03,30,04,25,4.80
2016,03,30,04,26,4.80
2016,03,30,04,27,4.80
2016,03,30,04,28,4.80
2016,03,30,04,29,4.80
2016,03,30,04,30,4.80
2016,03,30,04,31,4.80
2016,03,30,04,32,4.80
2016,03,30,04,33,4.70
2016,03,30,04,34,4.70
2016,03,30,04,35,4.60
2016,03,30,04,36,4.60
2016,03,30,04,37,4.50
2016,03,30,04,38,4.50
2016,03,30,04,39,4.40
2016,03,30,04,40,4.40
2016,03,30,04,41,4.40
2016,03,30,04,42,4.30
2016,03,30,04,43,4.30
2016,03,30,04,44,4.30
2016,03,30,04,45,4.30
2016,03,30,04,46,4.30
2016,03,30,04,47,4.30
2016,03,30,04,48,4.30
2016,03,30,04,49,4.30
2016,03,30,04,50,4.30
2016,03,30,04,51,4.30
2016,03,30,04,52,4.40
2016,03,30,04,53,4.40
2016,03,30,04,54,4.40
2016,03,30,04,55,4.40
2016,03,30,04,56,4.40
2016,03,30,04,57,4.40
2016,03,30,04,58,4.40
2016,03,30,04,59,4.40
2016,03,30,05,00,4.30
2016,03,30,05,01,4.30
2016,03,30,05,02,4.30
2016,03,30,05,03,4.30
2016,03,30,05,04,4.20
2016,03,30,05,05,4.20
2016,03,30,05,06,4.20
2016,03,30,05,07,4.20
2016,03,30,05,08,4.20
2016,03,30,05,09,4.20
2016,03,30,05,10,4.20
2016,03,30,05,11,4.20
2016,03,30,05,12,4.20
2016,03,30,05,13,4.30
2016,03,30,05,14,4.30
2016,03,30,05,15,4.30
2016,03,30,05,16,4.40
2016,03,30,05,17,4.50
2016,03,30,05,18,4.60
2016,03,30,05,19,4.60
2016,03,30,05,20,4.70
2016,03,30,05,21,4.70
2016,03,30,05,22,4.70
2016,03,30,05,23,4.80
2016,03,30,05,24,4.80
2016,03,30,05,25,4.80
2016,03,30,05,26,4.70
2016,03,30,05,27,4.70
2016,03,30,05,28,4.70
2016,03,30,05,29,4.70
2016,03,30,05,30,4.70
2016,03,30,05,31,4.70
2016,03,30,05,32,4.60
2016,03,30,05,33,4.60
2016,03,30,05,34,4.60
2016,03,30,05,35,4.60
2016,03,30,05,36,4.50
2016,03,30,05,37,4.50
2016,03,30,05,38,4.50
2016,03,30,05,39,4.50
2016,03,30,05,40,4.50
2016,03,30,05,41,4.50
2016,03,30,05,42,4.50
2016,03,30,05,43,4.50
2016,03,30,05,44,4.50
2016,03,30,05,45,4.50
2016,03,30,05,46,4.40
2016,03,30,05,47,4.40
2016,03,30,05,48,4.40
2016,03,30,05,49,4.40
2016,03,30,05,50,4.50
2016,03,30,05,51,4.60
2016,03,30,05,52,4.60
2016,03,30,05,53,4.70
2016,03,30,05,54,4.70
2016,03,30,05,55,4.70
2016,03,30,05,56,4.80
2016,03,30,05,57,4.70
2016,03,30,05,58,4.70
2016,03,30,05,59,4.70
2016,03,30,06,00,4.70
2016,03,30,06,01,4.60
2016,03,30,06,02,4.60
2016,03,30,06,03,4.60
2016,03,30,06,04,4.50
2016,03,30,06,05,4.50
2016,03,30,06,06,4.50
2016,03,30,06,07,4.50
2016,03,30,06,08,4.60
2016,03,30,06,09,4.60
2016,03,30,06,10,4.60
2016,03,30,06,11,4.70
2016,03,30,06,12,4.70
2016,03,30,06,13,4.70
2016,03,30,06,14,4.70
2016,03,30,06,15,4.60
2016,03,30,06,16,4.60
2016,03,30,06,17,4.60
2016,03,30,06,18,4.50
2016,03,30,06,19,4.50
2016,03,30,06,20,4.50
2016,03,30,06,21,4.50
2016,03,30,06,22,4.40
2016,03,30,06,23,4.50
2016,03,30,06,24,4.50
2016,03,30,06,25,4.50
2016,03,30,06,26,4.50
2016,03,30,06,27,4.50
2016,03,30,06,28,4.50
2016,03,30,06,29,4.50
2016,03,30,06,30,4.50
2016,03,30,06,31,4.50
2016,03,30,06,32,4.40
2016,03,30,06,33,4.40
2016,03,30,06,34,4.40
2016,03,30,06,35,4.40
2016,03,30,06,36,4.40
2016,03,30,06,37,4.40
2016,03,30,06,38,4.40
2016,03,30,06,39,4.30
2016,03,30,06,40,4.30
2016,03,30,06,41,4.30
2016,03,30,06,42,4.30
2016,03,30,06,43,4.30
2016,03,30,06,44,4.30
2016,03,30,06,45,4.30
2016,03,30,06,46,4.30
2016,03,30,06,47,4.30
2016,03,30,06,48,4.30
2016,03,30,06,49,4.30
2016,03,30,06,50,4.30
2016,03,30,06,51,4.30
2016,03,30,06,52,4.30
2016,03,30,06,53,4.20
2016,03,30,06,54,4.20
2016,03,30,06,55,4.20
2016,03,30,06,56,4.10
2016,03,30,06,57,4.10
2016,03,30,06,58,4.10
2016,03,30,06,59,4.10
2016,03,30,07,00,4.10
2016,03,30,07,01,4.10
2016,03,30,07,02,4.00
2016,03,30,07,03,4.00
2016,03,30,07,04,4.00
2016,03,30,07,05,4.00
2016,03,30,07,06,4.10
2016,03,30,07,07,4.10
2016,03,30,07,08,4.10
2016,03,30,07,09,4.10
2016,03,30,07,10,4.10
2016,03,30,07,11,4.10
2016,03,30,07,12,4.10
2016,03,30,07,13,4.00
2016,03,30,07,14,4.00
2016,03,30,07,15,4.00
2016,03,30,07,16,4.00
2016,03,30,07,17,4.00
2016,03,30,07,18,4.00
2016,03,30,07,19,4.10
2016,03,30,07,20,4.00
2016,03,30,07,21,4.10
2016,03,30,07,22,4.00
2016,03,30,07,23,4.00
2016,03,30,07,24,4.00
2016,03,30,07,25,4.00
2016,03,30,07,26,4.00
2016,03,30,07,27,4.00
2016,03,30,07,28,4.00
2016,03,30,07,29,4.10
2016,03,30,07,30,4.10
2016,03,30,07,31,4.10
2016,03,30,07,32,4.10
2016,03,30,07,33,4.10
2016,03,30,07,34,4.10
2016,03,30,07,35,4.10
2016,03,30,07,36,4.20
2016,03,30,07,37,4.20
2016,03,30,07,38,4.20
2016,03,30,07,39,4.30
2016,03,30,07,40,4.40
2016,03,30,07,41,4.50
2016,03,30,07,42,4.50
2016,03,30,07,43,4.60
2016,03,30,07,44,4.70
2016,03,30,07,45,4.70
2016,03,30,07,46,4.80
2016,03,30,07,47,4.80
2016,03,30,07,48,4.90
2016,03,30,07,49,5.00
2016,03,30,07,50,5.00
2016,03,30,07,51,5.10
2016,03,30,07,52,5.20
2016,03,30,07,53,5.20
2016,03,30,07,54,5.30
2016,03,30,07,55,5.40
2016,03,30,07,56,5.40
2016,03,30,07,57,5.50
2016,03,30,07,58,5.50
2016,03,30,07,59,5.60
2016,03,30,08,00,5.70
2016,03,30,08,01,5.70
2016,03,30,08,02,5.70
2016,03,30,08,03,5.70
2016,03,30,08,04,5.80
2016,03,30,08,05,5.80
2016,03,30,08,06,5.90
2016,03,30,08,07,6.00
2016,03,30,08,08,6.20
2016,03,30,08,09,6.30
2016,03,30,08,10,6.40
2016,03,30,08,11,6.50
2016,03,30,08,12,6.60
2016,03,30,08,13,6.70
2016,03,30,08,14,6.80
2016,03,30,08,15,6.80
2016,03,30,08,16,6.90
2016,03,30,08,17,7.00
2016,03,30,08,18,7.00
2016,03,30,08,19,7.10
2016,03,30,08,20,7.20
2016,03,30,08,21,7.20
2016,03,30,08,22,7.30
2016,03,30,08,23,7.40
2016,03,30,08,24,7.40
2016,03,30,08,25,7.50
2016,03,30,08,26,7.60
2016,03,30,08,27,7.60
2016,03,30,08,28,7.60
2016,03,30,08,29,7.70
2016,03,30,08,30,7.70
2016,03,30,08,31,7.70
2016,03,30,08,32,7.80
2016,03,30,08,33,7.90
2016,03,30,08,34,8.00
2016,03,30,08,35,8.20
2016,03,30,08,36,8.30
2016,03,30,08,37,8.50
2016,03,30,08,38,8.60
2016,03,30,08,39,8.70
2016,03,30,08,40,8.80
2016,03,30,08,41,8.90
2016,03,30,08,42,9.00
2016,03,30,08,43,9.10
2016,03,30,08,44,9.20
2016,03,30,08,45,9.30
2016,03,30,08,46,9.40
2016,03,30,08,47,9.50
2016,03,30,08,48,9.50
2016,03,30,08,49,9.60
2016,03,30,08,50,9.70
2016,03,30,08,51,9.80
2016,03,30,08,52,9.90
2016,03,30,08,53,10.00
2016,03,30,08,54,10.10
2016,03,30,08,55,10.10
2016,03,30,08,56,10.20
2016,03,30,08,57,10.30
2016,03,30,08,58,10.40
2016,03,30,08,59,10.50
2016,03,30,09,00,10.60
2016,03,30,09,01,10.70
2016,03,30,09,02,10.80
2016,03,30,09,03,10.90
2016,03,30,09,04,11.00
2016,03,30,09,05,11.10
2016,03,30,09,06,11.20
2016,03,30,09,07,11.30
2016,03,30,09,08,11.40
2016,03,30,09,09,11.50
2016,03,30,09,10,11.60
2016,03,30,09,11,11.70
2016,03,30,09,12,11.80
2016,03,30,09,13,11.90
2016,03,30,09,14,12.00
2016,03,30,09,15,12.10
2016,03,30,09,16,12.10
2016,03,30,09,17,12.20
2016,03,30,09,18,12.30
2016,03,30,09,19,12.30
2016,03,30,09,20,12.40
2016,03,30,09,21,12.50
2016,03,30,09,22,12.50
2016,03,30,09,23,12.60
2016,03,30,09,24,12.70
2016,03,30,09,25,12.70
2016,03,30,09,26,12.80
2016,03,30,09,27,12.80
2016,03,30,09,28,12.80
2016,03,30,09,29,12.90
2016,03,30,09,30,12.90
2016,03,30,09,31,12.90
2016,03,30,09,32,12.90
2016,03,30,09,33,12.90
2016,03,30,09,34,13.00
2016,03,30,09,35,13.00
2016,03,30,09,36,13.10
2016,03,30,09,37,13.10
2016,03,30,09,38,13.20
2016,03,30,09,39,13.20
2016,03,30,09,40,13.20
2016,03,30,09,41,13.30
2016,03,30,09,42,13.30
2016,03,30,09,43,13.40
2016,03,30,09,44,13.40
2016,03,30,09,45,13.40
2016,03,30,09,46,13.40
2016,03,30,09,47,13.50
2016,03,30,09,48,13.50
2016,03,30,09,49,13.50
2016,03,30,09,50,13.60
2016,03,30,09,51,13.60
2016,03,30,09,52,13.60
2016,03,30,09,53,13.60
2016,03,30,09,54,13.70
2016,03,30,09,55,13.70
2016,03,30,09,56,13.70
2016,03,30,09,57,13.70
2016,03,30,09,58,13.70
2016,03,30,09,59,13.80
2016,03,30,10,00,13.80
2016,03,30,10,01,13.80
2016,03,30,10,02,13.80
2016,03,30,10,03,13.90
2016,03,30,10,04,13.90
2016,03,30,10,05,13.90
2016,03,30,10,06,13.90
2016,03,30,10,07,14.00
2016,03,30,10,08,14.00
2016,03,30,10,09,14.00
2016,03,30,10,10,14.10
2016,03,30,10,11,14.10
2016,03,30,10,12,14.20
2016,03,30,10,13,14.20
2016,03,30,10,14,14.20
2016,03,30,10,15,14.20
2016,03,30,10,16,14.20
2016,03,30,10,17,14.30
2016,03,30,10,18,14.30
2016,03,30,10,19,14.30
2016,03,30,10,20,14.30
2016,03,30,10,21,14.40
2016,03,30,10,22,14.40
2016,03,30,10,23,14.50
2016,03,30,10,24,14.50
2016,03,30,10,25,14.60
2016,03,30,10,26,14.60
2016,03,30,10,27,14.60
2016,03,30,10,28,14.60
2016,03,30,10,29,14.60
2016,03,30,10,30,14.70
2016,03,30,10,31,14.70
2016,03,30,10,32,14.80
2016,03,30,10,33,14.80
2016,03,30,10,34,14.70
2016,03,30,10,35,14.70
2016,03,30,10,36,14.80
2016,03,30,10,37,14.80
2016,03,30,10,38,14.80
2016,03,30,10,39,14.70
2016,03,30,10,40,14.70
2016,03,30,10,41,14.70
2016,03,30,10,42,14.70
2016,03,30,10,43,14.80
2016,03,30,10,44,14.90
2016,03,30,10,45,14.90
2016,03,30,10,46,14.90
2016,03,30,10,47,14.90
2016,03,30,10,48,14.90
2016,03,30,10,49,15.00
2016,03,30,10,50,15.00
2016,03,30,10,51,15.00
2016,03,30,10,52,15.10
2016,03,30,10,53,15.10
2016,03,30,10,54,15.10
2016,03,30,10,55,15.10
2016,03,30,10,56,15.10
2016,03,30,10,57,15.10
2016,03,30,10,58,15.10
2016,03,30,10,59,15.00
2016,03,30,11,00,15.00
2016,03,30,11,01,15.00
2016,03,30,11,02,14.90
2016,03,30,11,03,14.90
2016,03,30,11,04,15.00
2016,03,30,11,05,15.00
2016,03,30,11,06,14.90
2016,03,30,11,07,14.90
2016,03,30,11,08,14.90
2016,03,30,11,09,14.90
2016,03,30,11,10,15.00
2016,03,30,11,11,15.00
2016,03,30,11,12,14.90
2016,03,30,11,13,14.90
2016,03,30,11,14,14.90
2016,03,30,11,15,14.90
2016,03,30,11,16,14.90
2016,03,30,11,17,15.00
2016,03,30,11,18,15.00
2016,03,30,11,19,15.00
2016,03,30,11,20,15.00
2016,03,30,11,21,15.00
2016,03,30,11,22,15.00
2016,03,30,11,23,15.10
2016,03,30,11,24,15.10
2016,03,30,11,25,15.20
2016,03,30,11,26,15.20
2016,03,30,11,27,15.10
2016,03,30,11,28,15.10
2016,03,30,11,29,15.10
2016,03,30,11,30,15.00
2016,03,30,11,31,15.00
2016,03,30,11,32,15.00
2016,03,30,11,33,15.10
2016,03,30,11,34,15.10
2016,03,30,11,35,15.10
2016,03,30,11,36,15.10
2016,03,30,11,37,15.10
2016,03,30,11,38,15.20
2016,03,30,11,39,15.20
2016,03,30,11,40,15.20
2016,03,30,11,41,15.20
2016,03,30,11,42,15.20
2016,03,30,11,43,15.20
2016,03,30,11,44,15.30
2016,03,30,11,45,15.30
2016,03,30,11,46,15.40
2016,03,30,11,47,15.40
2016,03,30,11,48,15.50
2016,03,30,11,49,15.60
2016,03,30,11,50,15.60
2016,03,30,11,51,15.70
2016,03,30,11,52,15.80
2016,03,30,11,53,15.80
2016,03,30,11,54,15.80
2016,03,30,11,55,15.80
2016,03,30,11,56,15.80
2016,03,30,11,57,15.90
2016,03,30,11,58,15.90
2016,03,30,11,59,15.90
2016,03,30,12,00,16.00
2016,03,30,12,01,16.10
2016,03,30,12,02,16.20
2016,03,30,12,03,16.20
2016,03,30,12,04,16.20
2016,03,30,12,05,16.10
2016,03,30,12,06,15.90
2016,03,30,12,07,15.70
2016,03,30,12,08,15.60
2016,03,30,12,09,15.50
2016,03,30,12,10,15.50
2016,03,30,12,11,15.40
2016,03,30,12,12,15.40
2016,03,30,12,13,15.40
2016,03,30,12,14,15.40
2016,03,30,12,15,15.40
2016,03,30,12,16,15.30
2016,03,30,12,17,15.20
2016,03,30,12,18,15.10
2016,03,30,12,19,15.10
2016,03,30,12,20,15.10
2016,03,30,12,21,15.10
2016,03,30,12,22,15.10
2016,03,30,12,23,15.10
2016,03,30,12,24,15.00
2016,03,30,12,25,14.90
2016,03,30,12,26,14.80
2016,03,30,12,27,14.80
2016,03,30,12,28,14.80
2016,03,30,12,29,14.90
2016,03,30,12,30,15.00
2016,03,30,12,31,15.10
2016,03,30,12,32,15.20
2016,03,30,12,33,15.30
2016,03,30,12,34,15.40
2016,03,30,12,35,15.50
2016,03,30,12,36,15.60
2016,03,30,12,37,15.70
2016,03,30,12,38,15.70
2016,03,30,12,39,15.70
2016,03,30,12,40,15.70
2016,03,30,12,41,15.70
2016,03,30,12,42,15.60
2016,03,30,12,43,15.50
2016,03,30,12,44,15.50
2016,03,30,12,45,15.30
2016,03,30,12,46,15.30
2016,03,30,12,47,15.30
2016,03,30,12,48,15.30
2016,03,30,12,49,15.30
2016,03,30,12,50,15.40
2016,03,30,12,51,15.40
2016,03,30,12,52,15.30
2016,03,30,12,53,15.30
2016,03,30,12,54,15.20
2016,03,30,12,55,15.20
2016,03,30,12,56,15.10
2016,03,30,12,57,15.10
2016,03,30,12,58,15.10
2016,03,30,12,59,15.10
2016,03,30,13,00,15.10
2016,03,30,13,01,15.10
2016,03,30,13,02,15.20
2016,03,30,13,03,15.20
2016,03,30,13,04,15.20
2016,03,30,13,05,15.30
2016,03,30,13,06,15.40
2016,03,30,13,07,15.40
2016,03,30,13,08,15.40
2016,03,30,13,09,15.40
2016,03,30,13,10,15.40
2016,03,30,13,11,15.40
2016,03,30,13,12,15.40
2016,03,30,13,13,15.40
2016,03,30,13,14,15.40
2016,03,30,13,15,15.40
2016,03,30,13,16,15.40
2016,03,30,13,17,15.40
2016,03,30,13,18,15.30
2016,03,30,13,19,15.30
2016,03,30,13,20,15.30
2016,03,30,13,21,15.20
2016,03,30,13,22,15.20
2016,03,30,13,23,15.10
2016,03,30,13,24,15.10
2016,03,30,13,25,15.20
2016,03,30,13,26,15.20
2016,03,30,13,27,15.20
2016,03,30,13,28,15.30
2016,03,30,13,29,15.40
2016,03,30,13,30,15.50
2016,03,30,13,31,15.60
2016,03,30,13,32,15.70
2016,03,30,13,33,15.70
2016,03,30,13,34,15.70
2016,03,30,13,35,15.70
2016,03,30,13,36,15.80
2016,03,30,13,37,15.80
2016,03,30,13,38,15.80
2016,03,30,13,39,15.80
2016,03,30,13,40,15.80
2016,03,30,13,41,15.80
2016,03,30,13,42,15.90
2016,03,30,13,43,16.00
2016,03,30,13,44,16.10
2016,03,30,13,45,16.00
2016,03,30,13,46,16.00
2016,03,30,13,47,16.00
2016,03,30,13,48,16.00
2016,03,30,13,49,16.00
2016,03,30,13,50,15.90
2016,03,30,13,51,15.90
2016,03,30,13,52,15.90
2016,03,30,13,53,15.90
2016,03,30,13,54,15.90
2016,03,30,13,55,15.90
2016,03,30,13,56,15.90
2016,03,30,13,57,16.00
2016,03,30,13,58,16.00
2016,03,30,13,59,15.90
2016,03,30,14,00,15.80
2016,03,30,14,01,15.80
2016,03,30,14,02,15.70
2016,03,30,14,03,15.70
2016,03,30,14,04,15.80
2016,03,30,14,05,15.90
2016,03,30,14,06,16.10
2016,03,30,14,07,16.20
2016,03,30,14,08,16.20
2016,03,30,14,09,16.20
2016,03,30,14,10,16.30
2016,03,30,14,11,16.30
2016,03,30,14,12,16.30
2016,03,30,14,13,16.20
2016,03,30,14,14,16.10
2016,03,30,14,15,16.00
2016,03,30,14,16,15.90
2016,03,30,14,17,15.90
2016,03,30,14,18,15.90
2016,03,30,14,19,15.90
2016,03,30,14,20,15.90
2016,03,30,14,21,15.90
2016,03,30,14,22,15.80
2016,03,30,14,23,15.70
2016,03,30,14,24,15.60
2016,03,30,14,25,15.50
2016,03,30,14,26,15.40
2016,03,30,14,27,15.50
2016,03,30,14,28,15.50
2016,03,30,14,29,15.60
2016,03,30,14,30,15.70
2016,03,30,14,31,15.70
2016,03,30,14,32,15.60
2016,03,30,14,33,15.50
2016,03,30,14,34,15.50
2016,03,30,14,35,15.40
2016,03,30,14,36,15.30
2016,03,30,14,37,15.30
2016,03,30,14,38,15.10
2016,03,30,14,39,15.10
2016,03,30,14,40,15.10
2016,03,30,14,41,15.20
2016,03,30,14,42,15.20
2016,03,30,14,43,15.20
2016,03,30,14,44,15.20
2016,03,30,14,45,15.20
2016,03,30,14,46,15.20
2016,03,30,14,47,15.20
2016,03,30,14,48,15.20
2016,03,30,14,49,15.20
2016,03,30,14,50,15.20
2016,03,30,14,51,15.20
2016,03,30,14,52,15.30
2016,03,30,14,53,15.40
2016,03,30,14,54,15.50
2016,03,30,14,55,15.60
2016,03,30,14,56,15.70
2016,03,30,14,57,15.80
2016,03,30,14,58,15.80
2016,03,30,14,59,15.90
2016,03,30,15,00,15.90
2016,03,30,15,01,15.90
2016,03,30,15,02,16.00
2016,03,30,15,03,16.00
2016,03,30,15,04,16.10
2016,03,30,15,05,16.10
2016,03,30,15,06,16.20
2016,03,30,15,07,16.10
2016,03,30,15,08,16.10
2016,03,30,15,09,16.10
2016,03,30,15,10,16.10
2016,03,30,15,11,16.20
2016,03,30,15,12,16.20
2016,03,30,15,13,16.30
2016,03,30,15,14,16.30
2016,03,30,15,15,16.30
2016,03,30,15,16,16.30
2016,03,30,15,17,16.40
2016,03,30,15,18,16.40
2016,03,30,15,19,16.40
2016,03,30,15,20,16.40
2016,03,30,15,21,16.40
2016,03,30,15,22,16.40
2016,03,30,15,23,16.50
2016,03,30,15,24,16.50
2016,03,30,15,25,16.60
2016,03,30,15,26,16.60
2016,03,30,15,27,16.60
2016,03,30,15,28,16.60
2016,03,30,15,29,16.60
2016,03,30,15,30,16.70
2016,03,30,15,31,16.70
2016,03,30,15,32,16.80
2016,03,30,15,33,16.80
2016,03,30,15,34,16.90
2016,03,30,15,35,17.00
2016,03,30,15,36,17.00
2016,03,30,15,37,17.10
2016,03,30,15,38,17.20
2016,03,30,15,39,17.30
2016,03,30,15,40,17.40
2016,03,30,15,41,17.50
2016,03,30,15,42,17.60
2016,03,30,15,43,17.70
2016,03,30,15,44,17.80
2016,03,30,15,45,17.90
2016,03,30,15,46,17.90
2016,03,30,15,47,18.00
2016,03,30,15,48,18.10
2016,03,30,15,49,18.20
2016,03,30,15,50,18.20
2016,03,30,15,51,18.30
2016,03,30,15,52,18.20
2016,03,30,15,53,18.10
2016,03,30,15,54,18.00
2016,03,30,15,55,18.00
2016,03,30,15,56,17.90
2016,03,30,15,57,17.90
2016,03,30,15,58,17.80
2016,03,30,15,59,17.80
2016,03,30,16,00,17.80
2016,03,30,16,01,17.80
2016,03,30,16,02,17.80
2016,03,30,16,03,17.80
2016,03,30,16,04,17.80
2016,03,30,16,05,17.80
2016,03,30,16,06,17.90
2016,03,30,16,07,17.90
2016,03,30,16,08,17.90
2016,03,30,16,09,17.90
2016,03,30,16,10,18.00
2016,03,30,16,11,18.00
2016,03,30,16,12,18.20
2016,03,30,16,13,18.30
2016,03,30,16,14,18.30
2016,03,30,16,15,18.20
2016,03,30,16,16,18.00
2016,03,30,16,17,17.90
2016,03,30,16,18,17.80
2016,03,30,16,19,17.70
2016,03,30,16,20,17.70
2016,03,30,16,21,17.70
2016,03,30,16,22,17.70
2016,03,30,16,23,17.80
2016,03,30,16,24,17.80
2016,03,30,16,25,17.70
2016,03,30,16,26,17.80
2016,03,30,16,27,17.80
2016,03,30,16,28,17.80
2016,03,30,16,29,17.90
2016,03,30,16,30,18.00
2016,03,30,16,31,18.10
2016,03,30,16,32,18.10
2016,03,30,16,33,18.10
2016,03,30,16,34,18.20
2016,03,30,16,35,18.30
2016,03,30,16,36,18.30
2016,03,30,16,37,18.30
2016,03,30,16,38,18.30
2016,03,30,16,39,18.40
2016,03,30,16,40,18.50
2016,03,30,16,41,18.50
2016,03,30,16,42,18.60
2016,03,30,16,43,18.70
2016,03,30,16,44,18.70
2016,03,30,16,45,18.80
2016,03,30,16,46,18.70
2016,03,30,16,47,18.70
2016,03,30,16,48,18.70
2016,03,30,16,49,18.70
2016,03,30,16,50,18.70
2016,03,30,16,51,18.60
2016,03,30,16,52,18.60
2016,03,30,16,53,18.50
2016,03,30,16,54,18.50
2016,03,30,16,55,18.40
2016,03,30,16,56,18.40
2016,03,30,16,57,18.40
2016,03,30,16,58,18.40
2016,03,30,16,59,18.40
2016,03,30,17,00,18.40
2016,03,30,17,01,18.40
2016,03,30,17,02,18.50
2016,03,30,17,03,18.50
2016,03,30,17,04,18.50
2016,03,30,17,05,18.40
2016,03,30,17,06,18.30
2016,03,30,17,07,18.20
2016,03,30,17,08,18.10
2016,03,30,17,09,18.10
2016,03,30,17,10,18.00
2016,03,30,17,11,18.00
2016,03,30,17,12,17.90
2016,03,30,17,13,17.90
2016,03,30,17,14,17.90
2016,03,30,17,15,17.90
2016,03,30,17,16,17.90
2016,03,30,17,17,17.90
2016,03,30,17,18,17.90
2016,03,30,17,19,17.90
2016,03,30,17,20,17.90
2016,03,30,17,21,17.80
2016,03,30,17,22,17.80
2016,03,30,17,23,17.90
2016,03,30,17,24,17.90
2016,03,30,17,25,17.90
2016,03,30,17,26,18.00
2016,03,30,17,27,18.10
2016,03,30,17,28,18.20
2016,03,30,17,29,18.20
2016,03,30,17,30,18.20
2016,03,30,17,31,18.10
2016,03,30,17,32,18.10
2016,03,30,17,33,18.00
2016,03,30,17,34,17.90
2016,03,30,17,35,17.80
2016,03,30,17,36,17.80
2016,03,30,17,37,17.70
2016,03,30,17,38,17.50
2016,03,30,17,39,17.40
2016,03,30,17,40,17.30
2016,03,30,17,41,17.20
2016,03,30,17,42,17.10